{"data":{"norad_id":55342,"intl_designator":"2023-013M","name":"STARLINK-5657","alt_names":[],"object_type":"PAYLOAD","status":"ACTIVE","operator":null,"country":"US","launch_date":"2023-01-26","launch_site_code":"AFETR","launch_vehicle":null,"mission":null,"orbit_class":"UNKNOWN","rcs_meters":null,"size_class":null,"mass_kg":null,"dimensions":null,"purposes":["comms"],"wikipedia_slug":null,"has_3d_model":false,"image_url":null,"decayed_at":null,"tle_current":{"epoch":"2026-09-20T12:07:52.691808Z","epoch_age_seconds":96145,"freshness":"FRESH","line1":"1 55342U 23013M   26263.50547097 -.00000233  00000+0  10682-5 0  9994","line2":"2 55342  43.0041 283.5608 0001252 299.8096  60.2631 15.27577916201469","mean_motion":15.27577916,"eccentricity":0.0001252,"inclination_deg":43.0041,"raan_deg":283.5608,"arg_perigee_deg":299.8096,"mean_anomaly_deg":60.2631,"bstar":1.0682e-6,"rev_number":20146,"period_min":94.266877317176,"perigee_km":482.19631501196,"apogee_km":483.91435757297,"semimajor_km":6861.1923362925,"source":"CELESTRAK","updated_at":"2026-09-21T09:00:33.180455Z"}}}